Regional Weather Roundup
Issued by NWS

Home | Current Version | Previous Version | Text Only | Print | Product List | Glossary On
Versions: 1 2 3 4 5 6 7 8 9 10 11 12 13 14 15 16 17 18 19 20 21 22 23 24 25 26 27 28 29 30 31 32 33 34 35 36 37 38 39 40 41 42 43 44 45 46 47 48 49 50
000
ASUS44 KFWD 200103
RWRTX
NORTH TEXAS HOURLY WEATHER ROUNDUP
NATIONAL WEATHER SERVICE FORT WORTH TX
800 PM CDT TUE SEP 19 2017

NOTE: "FAIR" INDICATES FEW OR NO CLOUDS BELOW 12,000 FEET WITH NO
SIGNIFICANT WEATHER AND/OR OBSTRUCTIONS TO VISIBILITY.

TXZ118-119-200200-
DALLAS/FORT WORTH METROPLEX

CITY           SKY/WX    TMP DP  RH WIND       PRES   REMARKS
DFW AIRPORT    MOCLDY    92  67  43 S13       29.78R HX  95
DALLAS LOVE    MOCLDY    92  66  42 S14       29.79R HX  94
FTW MEACHAM    CLOUDY    91  69  48 S15       29.78R HX  96
DAL-EXECUTIVE  CLEAR     90  69  50 S8        29.79R HX  94
FTW-ALLIANCE   MOCLDY    90  67  46 S15G23    29.78R HX  93
FTW-NAS-JRB    PTCLDY    91  67  44 S15       29.78R HX  94
FTW-SPINKS     PTCLDY    89  67  48 S10G16    29.81R HX  92
ARLINGTON      PTCLDY    90  68  48 S10       29.79R HX  94
GRAND PRAIRIE  CLEAR     90  64  43 SE7G16    29.80R HX  91
MESQUITE       PTCLDY    88  68  51 SE12      29.81R HX  91
LANCASTER      PTCLDY    89  68  49 S8        29.81R HX  92
$$

TXZ091>094-102>105-117-120-121-131>134-200200-
NORTH CENTRAL TEXAS

CITY           SKY/WX    TMP DP  RH WIND       PRES   REMARKS
SHRMAN/DENISON CLOUDY    87  68  53 SE10      29.80S HX  90
GAINESVILLE    CLOUDY    86  67  53 S7        29.81S
BOWIE          HVY RAIN  69  65  88 NW24G36   29.86R
BRIDGEPORT     CLOUDY    85  64  49 NW13G26   29.84R
DECATUR        CLOUDY    89  67  47 S13G18    29.80R HX  92
DENTON         CLOUDY    89  68  49 S13       29.78R HX  93
MCKINNEY       CLOUDY    87  69  54 S8        29.80R HX  91
BONHAM         PTCLDY    84  68  58 SE9       29.82R
GREENVILLE     CLEAR     86  72  62 SE7       29.83R HX  92
ROCKWALL       PTCLDY    88  70  54 S10       29.82R HX  93
TERRELL        PTCLDY    88  69  53 S15       29.82R HX  92
WAXAHACHIE     PTCLDY    88  69  54 S7        29.82R HX  92
CLEBURNE       CLOUDY    88  70  55 S10G16    29.82R HX  92
GRANBURY       CLOUDY    90  68  48 SE13      29.80R HX  94
$$

TXZ083>090-098>101-113>116-127>130-139>142-154-155-200200-
WESTERN NORTH TEXAS

CITY           SKY/WX    TMP DP  RH WIND       PRES   REMARKS
WICHITA FALLS  CLOUDY    75  63  66 S22G29    29.73F
WF-KICKAPOO    CLOUDY    74  64  71 SE22G29   29.76F
VERNON         CLEAR     80  59  47 SE18G24   29.72R
ABILENE        CLEAR     76  63  64 S16G25    29.81R
ABILENE-DYESS  PTCLDY    82  64  55 S24G32    29.79R
GRAHAM         MOCLDY    74  62  66 NE16G23   29.78R
BRECKENRIDGE   CLEAR     87  57  35 S18G31    29.79R
CISCO          PTCLDY    79  64  61 S15G24    29.83S HAZE
EASTLAND       PTCLDY    82  63  53 S18G24    29.82R
RANGER         PTCLDY    83  62  50 S12       29.82R
MINERAL WELLS  CLOUDY    89  67  47 S13G22    29.76S HX  92
STEPHENVILLE   CLOUDY    86  66  51 S13       29.84R
COMANCHE       CLOUDY    79  63  56 SW10G20   29.82F
BROWNWOOD      CLOUDY    75  64  69 SW6       29.83F
COLEMAN        MOCLDY    73  65  76 S12       29.84F
$$

TXZ143>147-156>162-174-175-200200-
CENTRAL TEXAS

CITY           SKY/WX    TMP DP  RH WIND       PRES   REMARKS
WACO           MOCLDY    88  71  57 S17       29.79F HX  94
WACO-TSTC      CLEAR     88  70  55 S14G21    29.79F HX  92
WACO-MCGREGOR  CLOUDY    87  70  56 S17       29.79F HX  92
HILLSBORO      CLOUDY    89  70  54 S13       29.81R HX  94
CORSICANA      CLOUDY    87  71  58 S10       29.83R HX  93
MEXIA          MOCLDY    85  70  60 S16       29.83R
HEARNE         MOCLDY    84  73  68 SE5       29.85S HX  90
CAMERON        CLOUDY    84  72  67 SE5       29.84S
TEMPLE         CLOUDY    86  71  60 S15       29.82F HX  91
KILLEEN        LGT RAIN  85  70  61 SE13      29.81F HX  90
FORT HOOD      MOCLDY    85  70  61 S10       29.78F
GATESVILLE     CLOUDY    86  72  62 S12       29.79F HX  92
HAMILTON       CLOUDY    85  69  59 S17G24    29.81S
LAMPASAS       LGT RAIN  81  74  81 CALM      29.83F
$$

TXZ095>097-106>112-122>126-135>138-148>153-164>167-200200-
EAST TEXAS

CITY           SKY/WX    TMP DP  RH WIND       PRES   REMARKS
PARIS          CLEAR     82  71  69 SE9       29.83R
SULPHUR SPRNGS CLEAR     85  71  62 SE5       29.85R HX  90
MOUNT PLEASANT CLEAR     81  72  72 S5        29.85R
GILMER         CLEAR     84  72  66 S5        29.85R
MINEOLA        CLEAR     84  73  70 S6        29.84R HX  91
TYLER          CLEAR     84  73  69 S8        29.84R HX  90
LONGVIEW       CLEAR     83  75  77 S8        29.85R HX  90
MARSHALL       CLEAR     80  71  76 CALM      29.88R
ATHENS         PTCLDY    82  70  65 S6        29.82S
PALESTINE      CLOUDY    85  74  69 SE5       29.85S HX  92
JACKSONVILLE   PTCLDY    82  75  79 S8        29.88S
HENDERSON      CLEAR     82  74  76 SE6       29.87R
CENTER         CLEAR     82  76  81 SE3       29.88S HX  90
NACOGDOCHES    CLEAR     80  76  87 SE5       29.88R
LUFKIN         CLEAR     80  75  84 SE7       29.87S
$$

SUPPLEMENTAL OBSERVATIONS (NWS FORT WORTH AREA)

CITY           SKY/WX    TMP DP  RH WIND       PRES   REMARKS
$$

SUPPLEMENTAL OBSERVATIONS (NWS NORMAN AREA)

CITY           SKY/WX    TMP DP  RH WIND       PRES   REMARKS
GOODLETT         N/A     86  60  41 SE8       29.68S
ODELL            N/A     78  65  63 SE15      29.72S
CROWELL          N/A     86  65  49 E17       29.71R
KNOX CITY        N/A     92  52  25 S12       29.72R
SEYMOUR          N/A     78  65  64 E22G29    29.74R
$$

SUPPLEMENTAL OBSERVATIONS (NWS SAN ANGELO AREA)

CITY           SKY/WX    TMP DP  RH WIND       PRES   REMARKS
WEINERT          N/A     93  60  33 S13       29.73R HX  93
HASKELL          N/A     93  53  26 S12       29.74R HX  90
THROCKMORTON     N/A     92  64  39 S10       29.76R HX  93
STAMFORD         N/A     93  62  35 S26G39    29.77R HX  94
CLYDE            N/A     76  64  67 S14       29.84R
$$

SUPPLEMENTAL OBSERVATIONS (NWS SHREVEPORT AREA)

CITY           SKY/WX    TMP DP  RH WIND       PRES   REMARKS
$$

SUPPLEMENTAL OBSERVATIONS ARE A COLLECTION OF AUTOMATED INSTRUMENTS
THAT ARE MAINTAINED BY A VARIETY OF FEDERAL AND STATE AGENCIES.
CERTAIN ELEMENTS...SUCH AS HUMIDITY VALUES AND SUSTAINED WIND
SPEEDS...MAY BE APPROXIMATED.




USA.gov is the U.S. government's official web portal to all federal, state and local government web resources and services.